User: anonymous   Login
Location: Unspecified
(0.0000°N, 0.0000°E)
Time: 19:03:58
(UTC+01:00)
Language:

AO-40 - Orbit

View from above orbital plane
View from above orbital plane
View from above satellite
View from above satellite

Ground track
Ground track

The orbit data is extracted from the following two-line orbital elements,

1 26609U 00072B   14331.13109899 -.00000177  00000-0  00000+0 0   811
2 26609 008.7065 020.7207 7942351 174.4110 208.6460 01.25585450 64616
Epoch (UTC): 27 November 2014 03:08:46
Eccentricity: 0.7942351
inclination: 8.7065°
perigee height: 1089 km
apogee height: 58732 km
right ascension of ascending node: 20.7207°
argument of perigee: 174.4110°
revolutions per day: 1.25585450
mean anomaly at epoch: 208.6460°
orbit number at epoch: 6461

The dashed part of the orbit path shows where the satellite is in the earth's shadow,  

DLR